Tracking 28790 objects as of 18-Apr-2024
HD Live streaming from Space Station
objects crossing your sky now

ZY 3

Track ZY 3 now!
10-day predictions
ZY 3 is classified as:


NORAD ID: 38046
Int'l Code: 2012-001A
Perigee: 480.9 km
Apogee: 487.0 km
Inclination: 97.3 °
Period: 94.1 minutes
Semi major axis: 6854 km
RCS: 5.391 m2 (large)
Launch date: January 9, 2012
Source: People's Republic of China (PRC)
Launch site: Taiyaun Space Center, China (TSC)
Your satellite tracking list
Your tracking list is empty




NASA's NSSDC Master Catalog

Two Line Element Set (TLE):
1 38046U 12001A   24109.17072924  .00021990  00000-0  76568-3 0  9999
2 38046  97.2521 172.4899 0004456  16.9789 343.1600 15.29680686681753
Source of the keplerian elements: AFSPC